contact:dominique.lefevre@mio.osupytheas.fr, maurice.libes@osupytheas.fr, didier.mallarino@osupytheas.fr
Project:EMSO http://www.emso-fr.org/EMSO-France
Depth: 2436.0 m
Title:EMSO Ligure Ouest : Data MII capteur MICROCAT
DateTime_Computer,Latitude,Longitude,Temperature,Conductivity,Pressure,DateTime_Instrument
DateTime_Computer,Latitude,Longitude,degC,S m-1,dbar,DateTime_Instrument
2017-12-07T00:01:50Z,42.805,6.029,13.2935,4.59953,2472.032,2017-12-07T02:03:19Z
2017-12-07T00:04:53Z,42.805,6.029,13.2940,4.59957,2472.01,2017-12-07T02:06:22Z
2017-12-07T00:07:56Z,42.805,6.029,13.2937,4.59955,2472.047,2017-12-07T02:09:25Z
2017-12-07T00:10:59Z,42.805,6.029,13.2941,4.59953,2472.047,2017-12-07T02:12:28Z
2017-12-07T00:14:02Z,42.805,6.029,13.2936,4.59953,2472.069,2017-12-07T02:15:31Z
2017-12-07T00:17:05Z,42.805,6.029,13.2943,4.59955,2472.069,2017-12-07T02:18:34Z
2017-12-07T00:20:08Z,42.805,6.029,13.2937,4.59953,2472.032,2017-12-07T02:21:37Z
2017-12-07T00:23:10Z,42.805,6.029,13.2933,4.59957,2472.032,2017-12-07T02:24:40Z
2017-12-07T00:26:13Z,42.805,6.029,13.2936,4.59956,2472.069,2017-12-07T02:27:43Z
2017-12-07T00:29:16Z,42.805,6.029,13.2940,4.59958,2472.047,2017-12-07T02:30:45Z
2017-12-07T00:32:19Z,42.805,6.029,13.2940,4.59954,2472.047,2017-12-07T02:33:48Z
2017-12-07T00:35:22Z,42.805,6.029,13.2935,4.59955,2472.069,2017-12-07T02:36:51Z
2017-12-07T00:38:25Z,42.805,6.029,13.2934,4.59953,2472.047,2017-12-07T02:39:54Z
2017-12-07T00:41:28Z,42.805,6.029,13.2939,4.59955,2472.032,2017-12-07T02:42:57Z
2017-12-07T00:44:31Z,42.805,6.029,13.2939,4.59955,2472.047,2017-12-07T02:46:00Z
2017-12-07T00:47:34Z,42.805,6.029,13.2935,4.59954,2472.032,2017-12-07T02:49:03Z
2017-12-07T00:50:36Z,42.805,6.029,13.2939,4.59954,2472.01,2017-12-07T02:52:06Z
2017-12-07T00:53:39Z,42.805,6.029,13.2939,4.59953,2472.047,2017-12-07T02:55:09Z
2017-12-07T00:56:42Z,42.805,6.029,13.2939,4.59956,2472.032,2017-12-07T02:58:11Z
2017-12-07T00:59:45Z,42.805,6.029,13.2938,4.59954,2472.047,2017-12-07T03:01:14Z
2017-12-07T01:02:48Z,42.805,6.029,13.2936,4.59956,2472.032,2017-12-07T03:04:17Z
2017-12-07T01:05:51Z,42.805,6.029,13.2936,4.59958,2472.032,2017-12-07T03:07:20Z
2017-12-07T01:08:54Z,42.805,6.029,13.2935,4.59953,2472.024,2017-12-07T03:10:23Z
2017-12-07T01:11:57Z,42.805,6.029,13.2935,4.59953,2472.032,2017-12-07T03:13:26Z
2017-12-07T01:15:00Z,42.805,6.029,13.2939,4.59957,2471.987,2017-12-07T03:16:29Z
2017-12-07T01:18:02Z,42.805,6.029,13.2941,4.59955,2471.987,2017-12-07T03:19:32Z
2017-12-07T01:21:05Z,42.805,6.029,13.2935,4.59955,2472.01,2017-12-07T03:22:35Z
2017-12-07T01:24:08Z,42.805,6.029,13.2940,4.59958,2472.024,2017-12-07T03:25:37Z
2017-12-07T01:27:11Z,42.805,6.029,13.2938,4.59958,2472.01,2017-12-07T03:28:40Z
2017-12-07T01:30:14Z,42.805,6.029,13.2936,4.59955,2472.01,2017-12-07T03:31:43Z
2017-12-07T01:33:17Z,42.805,6.029,13.2935,4.59955,2472.024,2017-12-07T03:34:46Z
2017-12-07T01:36:20Z,42.805,6.029,13.2939,4.59957,2471.987,2017-12-07T03:37:49Z
2017-12-07T01:39:23Z,42.805,6.029,13.2937,4.59953,2472.002,2017-12-07T03:40:52Z
2017-12-07T01:42:25Z,42.805,6.029,13.2935,4.59953,2472.002,2017-12-07T03:43:55Z
2017-12-07T01:45:28Z,42.805,6.029,13.2933,4.59955,2471.987,2017-12-07T03:46:58Z
2017-12-07T01:48:31Z,42.805,6.029,13.2935,4.59953,2472.002,2017-12-07T03:50:00Z
2017-12-07T01:51:34Z,42.805,6.029,13.2938,4.59954,2471.979,2017-12-07T03:53:03Z
2017-12-07T01:54:37Z,42.805,6.029,13.2937,4.59955,2472.024,2017-12-07T03:56:06Z
2017-12-07T01:57:40Z,42.805,6.029,13.2935,4.59953,2472.002,2017-12-07T03:59:09Z
2017-12-07T02:00:43Z,42.805,6.029,13.2931,4.59953,2472.024,2017-12-07T04:02:12Z
2017-12-07T02:03:46Z,42.805,6.029,13.2932,4.59953,2472.024,2017-12-07T04:05:15Z
2017-12-07T02:06:49Z,42.805,6.029,13.2938,4.59957,2472.002,2017-12-07T04:08:18Z
2017-12-07T02:09:51Z,42.805,6.029,13.2936,4.59953,2471.987,2017-12-07T04:11:21Z
2017-12-07T02:12:54Z,42.805,6.029,13.2937,4.59953,2472.002,2017-12-07T04:14:24Z
2017-12-07T02:15:57Z,42.805,6.029,13.2935,4.59953,2471.979,2017-12-07T04:17:26Z
2017-12-07T02:19:00Z,42.805,6.029,13.2935,4.59954,2471.979,2017-12-07T04:20:29Z
2017-12-07T02:22:03Z,42.805,6.029,13.2939,4.59959,2472.002,2017-12-07T04:23:32Z
2017-12-07T02:25:06Z,42.805,6.029,13.2935,4.59953,2472.002,2017-12-07T04:26:35Z
2017-12-07T02:28:09Z,42.805,6.029,13.2936,4.59956,2471.964,2017-12-07T04:29:38Z
2017-12-07T02:31:12Z,42.805,6.029,13.2934,4.59953,2472.002,2017-12-07T04:32:41Z
2017-12-07T02:34:15Z,42.805,6.029,13.2934,4.59953,2472.002,2017-12-07T04:35:44Z
2017-12-07T02:37:17Z,42.805,6.029,13.2936,4.59955,2471.979,2017-12-07T04:38:47Z
2017-12-07T02:40:20Z,42.805,6.029,13.2933,4.59955,2471.987,2017-12-07T04:41:50Z
2017-12-07T02:43:23Z,42.805,6.029,13.2937,4.59953,2471.957,2017-12-07T04:44:52Z
2017-12-07T02:46:26Z,42.805,6.029,13.2934,4.59954,2472.002,2017-12-07T04:47:55Z
2017-12-07T02:49:29Z,42.805,6.029,13.2933,4.59953,2471.957,2017-12-07T04:50:58Z
2017-12-07T02:52:32Z,42.805,6.029,13.2935,4.59954,2471.964,2017-12-07T04:54:01Z
2017-12-07T02:55:35Z,42.805,6.029,13.2932,4.59953,2471.957,2017-12-07T04:57:04Z
2017-12-07T02:58:38Z,42.805,6.029,13.2937,4.59955,2471.957,2017-12-07T05:00:07Z
2017-12-07T03:01:41Z,42.805,6.029,13.2933,4.59952,2471.964,2017-12-07T05:03:10Z
2017-12-07T03:04:43Z,42.805,6.029,13.2934,4.59953,2472.002,2017-12-07T05:06:13Z
2017-12-07T03:07:46Z,42.805,6.029,13.2935,4.59956,2471.964,2017-12-07T05:09:16Z
2017-12-07T03:10:49Z,42.805,6.029,13.2935,4.59954,2471.979,2017-12-07T05:12:18Z
2017-12-07T03:13:52Z,42.805,6.029,13.2936,4.59954,2471.979,2017-12-07T05:15:21Z
2017-12-07T03:16:55Z,42.805,6.029,13.2935,4.59953,2471.934,2017-12-07T05:18:24Z
2017-12-07T03:19:58Z,42.805,6.029,13.2935,4.59953,2471.957,2017-12-07T05:21:27Z
2017-12-07T03:23:01Z,42.805,6.029,13.2936,4.59954,2472.002,2017-12-07T05:24:30Z
2017-12-07T03:26:04Z,42.805,6.029,13.2935,4.59956,2471.979,2017-12-07T05:27:33Z
2017-12-07T03:29:07Z,42.805,6.029,13.2938,4.59953,2471.942,2017-12-07T05:30:36Z
2017-12-07T03:32:09Z,42.805,6.029,13.2929,4.59956,2471.957,2017-12-07T05:33:39Z
2017-12-07T03:35:12Z,42.805,6.029,13.2939,4.59956,2471.957,2017-12-07T05:36:42Z
2017-12-07T03:38:15Z,42.805,6.029,13.2939,4.59954,2471.964,2017-12-07T05:39:44Z
2017-12-07T03:41:18Z,42.805,6.029,13.2936,4.59953,2471.942,2017-12-07T05:42:47Z
2017-12-07T03:44:21Z,42.805,6.029,13.2937,4.59953,2471.957,2017-12-07T05:45:50Z
2017-12-07T03:47:24Z,42.805,6.029,13.2937,4.59953,2471.957,2017-12-07T05:48:53Z
2017-12-07T03:50:27Z,42.805,6.029,13.2934,4.59953,2471.934,2017-12-07T05:51:56Z
2017-12-07T03:53:30Z,42.805,6.029,13.2935,4.59954,2471.949,2017-12-07T05:54:59Z
2017-12-07T03:56:33Z,42.805,6.029,13.2938,4.59953,2471.934,2017-12-07T05:58:02Z
2017-12-07T03:59:35Z,42.805,6.029,13.2939,4.59953,2471.957,2017-12-07T06:01:05Z
2017-12-07T04:02:38Z,42.805,6.029,13.2935,4.59954,2471.942,2017-12-07T06:04:08Z
2017-12-07T04:05:41Z,42.805,6.029,13.2936,4.59953,2471.919,2017-12-07T06:07:10Z
2017-12-07T04:08:44Z,42.805,6.029,13.2935,4.59953,2471.942,2017-12-07T06:10:13Z
2017-12-07T04:11:47Z,42.805,6.029,13.2937,4.59953,2471.979,2017-12-07T06:13:16Z
2017-12-07T04:14:50Z,42.805,6.029,13.2933,4.59953,2471.934,2017-12-07T06:16:19Z
2017-12-07T04:17:53Z,42.805,6.029,13.2940,4.59958,2471.934,2017-12-07T06:19:22Z
2017-12-07T04:20:56Z,42.805,6.029,13.2931,4.59956,2471.957,2017-12-07T06:22:25Z
2017-12-07T04:23:58Z,42.805,6.029,13.2933,4.59953,2471.957,2017-12-07T06:25:28Z
2017-12-07T04:27:01Z,42.805,6.029,13.2937,4.59954,2471.979,2017-12-07T06:28:31Z
2017-12-07T04:30:04Z,42.805,6.029,13.2935,4.59954,2471.934,2017-12-07T06:31:33Z
2017-12-07T04:33:07Z,42.805,6.029,13.2935,4.59953,2471.942,2017-12-07T06:34:36Z
2017-12-07T04:36:10Z,42.805,6.029,13.2937,4.59954,2471.957,2017-12-07T06:37:39Z
2017-12-07T04:39:13Z,42.805,6.029,13.2937,4.59956,2471.934,2017-12-07T06:40:42Z
2017-12-07T04:42:16Z,42.805,6.029,13.2939,4.59953,2471.957,2017-12-07T06:43:45Z
2017-12-07T04:45:19Z,42.805,6.029,13.2933,4.59956,2471.979,2017-12-07T06:46:48Z
2017-12-07T04:48:22Z,42.805,6.029,13.2935,4.59955,2471.942,2017-12-07T06:49:51Z
2017-12-07T04:51:24Z,42.805,6.029,13.2933,4.59957,2471.971,2017-12-07T06:52:54Z
2017-12-07T04:54:27Z,42.805,6.029,13.2940,4.59954,2471.957,2017-12-07T06:55:57Z
2017-12-07T04:57:30Z,42.805,6.029,13.2935,4.59954,2471.957,2017-12-07T06:59:00Z
2017-12-07T05:00:33Z,42.805,6.029,13.2934,4.59954,2471.957,2017-12-07T07:02:02Z
2017-12-07T05:03:36Z,42.805,6.029,13.2935,4.59955,2471.979,2017-12-07T07:05:05Z
2017-12-07T05:06:39Z,42.805,6.029,13.2938,4.59958,2471.957,2017-12-07T07:08:08Z
2017-12-07T05:09:42Z,42.805,6.029,13.2941,4.59954,2471.957,2017-12-07T07:11:11Z
2017-12-07T05:12:45Z,42.805,6.029,13.2939,4.59954,2471.964,2017-12-07T07:14:14Z
2017-12-07T05:15:48Z,42.805,6.029,13.2936,4.59955,2471.964,2017-12-07T07:17:17Z
2017-12-07T05:18:50Z,42.805,6.029,13.2937,4.59957,2471.979,2017-12-07T07:20:20Z
2017-12-07T05:21:53Z,42.805,6.029,13.2935,4.59954,2471.987,2017-12-07T07:23:23Z
2017-12-07T05:24:56Z,42.805,6.029,13.2935,4.59954,2471.979,2017-12-07T07:26:25Z
2017-12-07T05:27:59Z,42.805,6.029,13.2935,4.59960,2471.942,2017-12-07T07:29:28Z
2017-12-07T05:31:02Z,42.805,6.029,13.2939,4.59956,2471.987,2017-12-07T07:32:31Z
2017-12-07T05:34:05Z,42.805,6.029,13.2937,4.59956,2471.987,2017-12-07T07:35:34Z
2017-12-07T05:37:08Z,42.805,6.029,13.2939,4.59956,2471.987,2017-12-07T07:38:37Z
2017-12-07T05:40:11Z,42.805,6.029,13.2934,4.59959,2472.002,2017-12-07T07:41:40Z
2017-12-07T05:43:14Z,42.805,6.029,13.2936,4.59956,2472.002,2017-12-07T07:44:43Z
2017-12-07T05:46:16Z,42.805,6.029,13.2941,4.59956,2471.987,2017-12-07T07:47:46Z
2017-12-07T05:49:19Z,42.805,6.029,13.2938,4.59961,2472.002,2017-12-07T07:50:49Z
2017-12-07T05:52:22Z,42.805,6.029,13.2935,4.59962,2472.024,2017-12-07T07:53:51Z
2017-12-07T05:55:25Z,42.805,6.029,13.2934,4.59956,2471.964,2017-12-07T07:56:54Z
2017-12-07T05:58:28Z,42.805,6.029,13.2935,4.59955,2472.01,2017-12-07T07:59:57Z
2017-12-07T06:01:31Z,42.805,6.029,13.2935,4.59954,2472.024,2017-12-07T08:03:00Z
2017-12-07T06:04:34Z,42.805,6.029,13.2936,4.59955,2472.024,2017-12-07T08:06:03Z
2017-12-07T06:07:37Z,42.805,6.029,13.2933,4.59956,2472.024,2017-12-07T08:09:06Z
2017-12-07T06:10:40Z,42.805,6.029,13.2935,4.59955,2472.032,2017-12-07T08:12:09Z
2017-12-07T06:13:42Z,42.805,6.029,13.2937,4.59957,2472.069,2017-12-07T08:15:12Z
2017-12-07T06:16:45Z,42.805,6.029,13.2933,4.59956,2472.055,2017-12-07T08:18:15Z
2017-12-07T06:19:48Z,42.805,6.029,13.2939,4.59957,2472.01,2017-12-07T08:21:17Z
2017-12-07T06:22:51Z,42.805,6.029,13.2935,4.59956,2472.032,2017-12-07T08:24:20Z
2017-12-07T06:25:54Z,42.805,6.029,13.2940,4.59955,2472.047,2017-12-07T08:27:23Z
2017-12-07T06:28:57Z,42.805,6.029,13.2936,4.59956,2472.069,2017-12-07T08:30:26Z
2017-12-07T06:32:00Z,42.805,6.029,13.2937,4.59956,2472.055,2017-12-07T08:33:29Z
2017-12-07T06:35:03Z,42.805,6.029,13.2936,4.59957,2472.055,2017-12-07T08:36:32Z
2017-12-07T06:38:06Z,42.805,6.029,13.2937,4.59955,2472.069,2017-12-07T08:39:35Z
2017-12-07T06:41:08Z,42.805,6.029,13.2940,4.59955,2472.077,2017-12-07T08:42:38Z
2017-12-07T06:44:11Z,42.805,6.029,13.2937,4.59963,2472.092,2017-12-07T08:45:41Z
2017-12-07T06:47:14Z,42.805,6.029,13.2939,4.59956,2472.092,2017-12-07T08:48:43Z
2017-12-07T06:50:17Z,42.805,6.029,13.2935,4.59957,2472.069,2017-12-07T08:51:46Z
2017-12-07T06:53:20Z,42.805,6.029,13.2939,4.59960,2472.077,2017-12-07T08:54:49Z
2017-12-07T06:56:23Z,42.805,6.029,13.2934,4.59955,2472.092,2017-12-07T08:57:52Z
2017-12-07T06:59:26Z,42.805,6.029,13.2939,4.59955,2472.077,2017-12-07T09:00:55Z
2017-12-07T07:02:29Z,42.805,6.029,13.2939,4.59956,2472.092,2017-12-07T09:03:58Z
2017-12-07T07:05:31Z,42.805,6.029,13.2936,4.59955,2472.115,2017-12-07T09:07:01Z
2017-12-07T07:08:34Z,42.805,6.029,13.2937,4.59956,2472.1,2017-12-07T09:10:04Z
2017-12-07T07:11:37Z,42.805,6.029,13.2940,4.59957,2472.137,2017-12-07T09:13:06Z
2017-12-07T07:14:40Z,42.805,6.029,13.2935,4.59957,2472.115,2017-12-07T09:16:09Z
2017-12-07T07:17:43Z,42.805,6.029,13.2938,4.59957,2472.1,2017-12-07T09:19:12Z
2017-12-07T07:20:46Z,42.805,6.029,13.2938,4.59956,2472.077,2017-12-07T09:22:15Z
2017-12-07T07:23:49Z,42.805,6.029,13.2937,4.59956,2472.137,2017-12-07T09:25:18Z
2017-12-07T07:26:52Z,42.805,6.029,13.2935,4.59955,2472.123,2017-12-07T09:28:21Z
2017-12-07T07:29:55Z,42.805,6.029,13.2939,4.59956,2472.137,2017-12-07T09:31:24Z
2017-12-07T07:32:57Z,42.805,6.029,13.2939,4.59956,2472.137,2017-12-07T09:34:27Z
2017-12-07T07:36:00Z,42.805,6.029,13.2941,4.59956,2472.145,2017-12-07T09:37:30Z
2017-12-07T07:39:03Z,42.805,6.029,13.2935,4.59956,2472.137,2017-12-07T09:40:32Z
2017-12-07T07:42:06Z,42.805,6.029,13.2936,4.59957,2472.123,2017-12-07T09:43:35Z
2017-12-07T07:45:09Z,42.805,6.029,13.2937,4.59955,2472.145,2017-12-07T09:46:38Z
2017-12-07T07:48:12Z,42.805,6.029,13.2933,4.59956,2472.19,2017-12-07T09:49:41Z
2017-12-07T07:51:15Z,42.805,6.029,13.2937,4.59960,2472.205,2017-12-07T09:52:44Z
2017-12-07T07:54:18Z,42.805,6.029,13.2934,4.59956,2472.182,2017-12-07T09:55:47Z
2017-12-07T07:57:21Z,42.805,6.029,13.2938,4.59957,2472.137,2017-12-07T09:58:50Z
2017-12-07T08:00:23Z,42.805,6.029,13.2942,4.59956,2472.182,2017-12-07T10:01:53Z
2017-12-07T08:03:26Z,42.805,6.029,13.2937,4.59955,2472.16,2017-12-07T10:04:56Z
2017-12-07T08:06:29Z,42.805,6.029,13.2940,4.59956,2472.182,2017-12-07T10:07:58Z
2017-12-07T08:09:32Z,42.805,6.029,13.2937,4.59956,2472.182,2017-12-07T10:11:01Z
2017-12-07T08:12:35Z,42.805,6.029,13.2939,4.59956,2472.182,2017-12-07T10:14:04Z
2017-12-07T08:15:38Z,42.805,6.029,13.2940,4.59956,2472.168,2017-12-07T10:17:07Z
2017-12-07T08:18:41Z,42.805,6.029,13.2939,4.59960,2472.182,2017-12-07T10:20:10Z
2017-12-07T08:21:44Z,42.805,6.029,13.2937,4.59958,2472.205,2017-12-07T10:23:13Z
2017-12-07T08:24:47Z,42.805,6.029,13.2935,4.59957,2472.205,2017-12-07T10:26:16Z
2017-12-07T08:27:49Z,42.805,6.029,13.2935,4.59958,2472.205,2017-12-07T10:29:19Z
2017-12-07T08:30:52Z,42.805,6.029,13.2939,4.59958,2472.182,2017-12-07T10:32:22Z
2017-12-07T08:33:55Z,42.805,6.029,13.2939,4.59956,2472.213,2017-12-07T10:35:24Z
2017-12-07T08:36:58Z,42.805,6.029,13.2935,4.59958,2472.213,2017-12-07T10:38:27Z
2017-12-07T08:40:01Z,42.805,6.029,13.2939,4.59956,2472.205,2017-12-07T10:41:30Z
2017-12-07T08:43:04Z,42.805,6.029,13.2939,4.59961,2472.227,2017-12-07T10:44:33Z
2017-12-07T08:46:07Z,42.805,6.029,13.2933,4.59957,2472.182,2017-12-07T10:47:36Z
2017-12-07T08:49:10Z,42.805,6.029,13.2937,4.59958,2472.19,2017-12-07T10:50:39Z
2017-12-07T08:52:13Z,42.805,6.029,13.2934,4.59958,2472.242,2017-12-07T10:53:42Z
2017-12-07T08:55:15Z,42.805,6.029,13.2940,4.59958,2472.205,2017-12-07T10:56:45Z
2017-12-07T08:58:18Z,42.805,6.029,13.2935,4.59958,2472.25,2017-12-07T10:59:48Z
2017-12-07T09:01:21Z,42.805,6.029,13.2935,4.59962,2472.265,2017-12-07T11:02:51Z
2017-12-07T09:04:24Z,42.805,6.029,13.2936,4.59956,2472.25,2017-12-07T11:05:53Z
2017-12-07T09:07:27Z,42.805,6.029,13.2939,4.59957,2472.227,2017-12-07T11:08:56Z
2017-12-07T09:10:30Z,42.805,6.029,13.2938,4.59956,2472.205,2017-12-07T11:11:59Z
2017-12-07T09:13:33Z,42.805,6.029,13.2936,4.59957,2472.227,2017-12-07T11:15:02Z
2017-12-07T09:16:36Z,42.805,6.029,13.2932,4.59957,2472.227,2017-12-07T11:18:05Z
2017-12-07T09:19:39Z,42.805,6.029,13.2939,4.59958,2472.182,2017-12-07T11:21:08Z
2017-12-07T09:22:42Z,42.805,6.029,13.2937,4.59958,2472.182,2017-12-07T11:24:11Z
2017-12-07T09:25:44Z,42.805,6.029,13.2939,4.59957,2472.19,2017-12-07T11:27:14Z
2017-12-07T09:28:47Z,42.805,6.029,13.2936,4.59958,2472.227,2017-12-07T11:30:17Z
2017-12-07T09:31:50Z,42.805,6.029,13.2937,4.59958,2472.227,2017-12-07T11:33:19Z
2017-12-07T09:34:53Z,42.805,6.029,13.2940,4.59956,2472.25,2017-12-07T11:36:22Z
2017-12-07T09:37:56Z,42.805,6.029,13.2938,4.59957,2472.236,2017-12-07T11:39:25Z
2017-12-07T09:40:59Z,42.805,6.029,13.2937,4.59958,2472.25,2017-12-07T11:42:28Z
2017-12-07T09:44:02Z,42.805,6.029,13.2932,4.59958,2472.227,2017-12-07T11:45:31Z
2017-12-07T09:47:05Z,42.805,6.029,13.2939,4.59956,2472.25,2017-12-07T11:48:34Z
2017-12-07T09:50:08Z,42.805,6.029,13.2932,4.59956,2472.227,2017-12-07T11:51:37Z
2017-12-07T09:53:10Z,42.805,6.029,13.2938,4.59958,2472.227,2017-12-07T11:54:40Z
2017-12-07T09:56:13Z,42.805,6.029,13.2938,4.59956,2472.213,2017-12-07T11:57:43Z
2017-12-07T09:59:16Z,42.805,6.029,13.2935,4.59958,2472.25,2017-12-07T12:00:45Z
2017-12-07T10:02:19Z,42.805,6.029,13.2934,4.59960,2472.25,2017-12-07T12:03:48Z
2017-12-07T10:05:22Z,42.805,6.029,13.2937,4.59960,2472.227,2017-12-07T12:06:51Z
2017-12-07T10:08:25Z,42.805,6.029,13.2935,4.59959,2472.227,2017-12-07T12:09:54Z
2017-12-07T10:11:28Z,42.805,6.029,13.2936,4.59962,2472.25,2017-12-07T12:12:57Z
2017-12-07T10:14:31Z,42.805,6.029,13.2941,4.59958,2472.227,2017-12-07T12:16:00Z
2017-12-07T10:17:34Z,42.805,6.029,13.2940,4.59972,2472.205,2017-12-07T12:19:03Z
2017-12-07T10:20:36Z,42.805,6.029,13.2935,4.59959,2472.25,2017-12-07T12:22:06Z
2017-12-07T10:23:39Z,42.805,6.029,13.2938,4.59956,2472.227,2017-12-07T12:25:09Z
2017-12-07T10:26:42Z,42.805,6.029,13.2935,4.59959,2472.227,2017-12-07T12:28:11Z
2017-12-07T10:29:45Z,42.805,6.029,13.2939,4.59964,2472.213,2017-12-07T12:31:14Z
2017-12-07T10:32:48Z,42.805,6.029,13.2939,4.59957,2472.227,2017-12-07T12:34:17Z
2017-12-07T10:35:51Z,42.805,6.029,13.2939,4.59958,2472.213,2017-12-07T12:37:20Z
2017-12-07T10:38:54Z,42.805,6.029,13.2940,4.59958,2472.213,2017-12-07T12:40:23Z
2017-12-07T10:41:57Z,42.805,6.029,13.2935,4.59962,2472.205,2017-12-07T12:43:26Z
2017-12-07T10:45:00Z,42.805,6.029,13.2935,4.59956,2472.205,2017-12-07T12:46:29Z
2017-12-07T10:48:02Z,42.805,6.029,13.2937,4.59955,2472.19,2017-12-07T12:49:32Z
2017-12-07T10:51:05Z,42.805,6.029,13.2943,4.59957,2472.205,2017-12-07T12:52:35Z
2017-12-07T10:54:08Z,42.805,6.029,13.2940,4.59959,2472.19,2017-12-07T12:55:38Z
2017-12-07T10:57:11Z,42.805,6.029,13.2933,4.59956,2472.182,2017-12-07T12:58:40Z
2017-12-07T11:00:14Z,42.805,6.029,13.2937,4.59955,2472.227,2017-12-07T13:01:43Z
2017-12-07T11:03:17Z,42.805,6.029,13.2939,4.59958,2472.205,2017-12-07T13:04:46Z
2017-12-07T11:06:20Z,42.805,6.029,13.2939,4.59958,2472.168,2017-12-07T13:07:49Z
2017-12-07T11:09:23Z,42.805,6.029,13.2939,4.59959,2472.213,2017-12-07T13:10:52Z
2017-12-07T11:12:26Z,42.805,6.029,13.2935,4.59956,2472.182,2017-12-07T13:13:55Z
2017-12-07T11:15:28Z,42.805,6.029,13.2933,4.59956,2472.227,2017-12-07T13:16:58Z
2017-12-07T11:18:31Z,42.805,6.029,13.2935,4.59957,2472.205,2017-12-07T13:20:01Z
2017-12-07T11:21:34Z,42.805,6.029,13.2935,4.59957,2472.213,2017-12-07T13:23:04Z
2017-12-07T11:24:37Z,42.805,6.029,13.2939,4.59958,2472.205,2017-12-07T13:26:06Z
2017-12-07T11:27:40Z,42.805,6.029,13.2937,4.59959,2472.19,2017-12-07T13:29:09Z
2017-12-07T11:30:43Z,42.805,6.029,13.2941,4.59958,2472.205,2017-12-07T13:32:12Z
2017-12-07T11:33:46Z,42.805,6.029,13.2938,4.59961,2472.182,2017-12-07T13:35:15Z
2017-12-07T11:36:49Z,42.805,6.029,13.2942,4.59970,2472.182,2017-12-07T13:38:18Z
2017-12-07T11:39:52Z,42.805,6.029,13.2935,4.59956,2472.19,2017-12-07T13:41:21Z
2017-12-07T11:42:55Z,42.805,6.029,13.2938,4.59956,2472.205,2017-12-07T13:44:24Z
2017-12-07T11:45:57Z,42.805,6.029,13.2935,4.59958,2472.205,2017-12-07T13:47:27Z
2017-12-07T11:49:00Z,42.805,6.029,13.2945,4.59960,2472.205,2017-12-07T13:50:30Z
2017-12-07T11:52:03Z,42.805,6.029,13.2944,4.59958,2472.168,2017-12-07T13:53:32Z
2017-12-07T11:55:06Z,42.805,6.029,13.2936,4.59956,2472.182,2017-12-07T13:56:35Z
2017-12-07T11:58:09Z,42.805,6.029,13.2940,4.59967,2472.182,2017-12-07T13:59:38Z
2017-12-07T12:01:12Z,42.805,6.029,13.2939,4.59957,2472.168,2017-12-07T14:02:41Z
2017-12-07T12:04:15Z,42.805,6.029,13.2936,4.59956,2472.168,2017-12-07T14:05:44Z
2017-12-07T12:07:18Z,42.805,6.029,13.2937,4.59956,2472.182,2017-12-07T14:08:47Z
2017-12-07T12:10:21Z,42.805,6.029,13.2938,4.59957,2472.137,2017-12-07T14:11:50Z
2017-12-07T12:13:23Z,42.805,6.029,13.2935,4.59958,2472.145,2017-12-07T14:14:53Z
2017-12-07T12:16:26Z,42.805,6.029,13.2938,4.59958,2472.182,2017-12-07T14:17:56Z
2017-12-07T12:19:29Z,42.805,6.029,13.2938,4.59956,2472.16,2017-12-07T14:20:58Z
2017-12-07T12:22:32Z,42.805,6.029,13.2934,4.59957,2472.16,2017-12-07T14:24:01Z
2017-12-07T12:25:35Z,42.805,6.029,13.2934,4.59955,2472.182,2017-12-07T14:27:04Z
2017-12-07T12:28:38Z,42.805,6.029,13.2937,4.59956,2472.168,2017-12-07T14:30:07Z
2017-12-07T12:31:41Z,42.805,6.029,13.2936,4.59956,2472.182,2017-12-07T14:33:10Z
2017-12-07T12:34:44Z,42.805,6.029,13.2935,4.59973,2472.145,2017-12-07T14:36:13Z
2017-12-07T12:37:47Z,42.805,6.029,13.2935,4.59965,2472.182,2017-12-07T14:39:16Z
2017-12-07T12:40:49Z,42.805,6.029,13.2939,4.59967,2472.145,2017-12-07T14:42:19Z
2017-12-07T12:43:52Z,42.805,6.029,13.2939,4.59961,2472.182,2017-12-07T14:45:22Z
2017-12-07T12:46:55Z,42.805,6.029,13.2935,4.59958,2472.123,2017-12-07T14:48:25Z
2017-12-07T12:49:58Z,42.805,6.029,13.2935,4.59962,2472.182,2017-12-07T14:51:27Z
2017-12-07T12:53:01Z,42.805,6.029,13.2940,4.59973,2472.137,2017-12-07T14:54:30Z
2017-12-07T12:56:04Z,42.805,6.029,13.2936,4.59959,2472.137,2017-12-07T14:57:33Z
2017-12-07T12:59:07Z,42.805,6.029,13.2939,4.59958,2472.137,2017-12-07T15:00:36Z
2017-12-07T13:02:10Z,42.805,6.029,13.2939,4.59959,2472.16,2017-12-07T15:03:39Z
2017-12-07T13:05:13Z,42.805,6.029,13.2937,4.59960,2472.137,2017-12-07T15:06:42Z
2017-12-07T13:08:15Z,42.805,6.029,13.2935,4.59958,2472.145,2017-12-07T15:09:45Z
2017-12-07T13:11:18Z,42.805,6.029,13.2936,4.59962,2472.123,2017-12-07T15:12:48Z
2017-12-07T13:14:21Z,42.805,6.029,13.2937,4.59958,2472.137,2017-12-07T15:15:51Z
2017-12-07T13:17:24Z,42.805,6.029,13.2940,4.59964,2472.123,2017-12-07T15:18:53Z
2017-12-07T13:20:27Z,42.805,6.029,13.2935,4.59959,2472.123,2017-12-07T15:21:56Z
2017-12-07T13:23:30Z,42.805,6.029,13.2936,4.59969,2472.16,2017-12-07T15:24:59Z
2017-12-07T13:26:33Z,42.805,6.029,13.2940,4.59964,2472.123,2017-12-07T15:28:02Z
2017-12-07T13:29:36Z,42.805,6.029,13.2936,4.59959,2472.115,2017-12-07T15:31:05Z
2017-12-07T13:32:39Z,42.805,6.029,13.2933,4.59961,2472.137,2017-12-07T15:34:08Z
2017-12-07T13:35:42Z,42.805,6.029,13.2935,4.59957,2472.115,2017-12-07T15:37:11Z
2017-12-07T13:38:44Z,42.805,6.029,13.2939,4.59956,2472.115,2017-12-07T15:40:14Z
2017-12-07T13:41:47Z,42.805,6.029,13.2936,4.59961,2472.092,2017-12-07T15:43:17Z
2017-12-07T13:44:50Z,42.805,6.029,13.2938,4.59961,2472.137,2017-12-07T15:46:19Z
2017-12-07T13:47:53Z,42.805,6.029,13.2935,4.59957,2472.115,2017-12-07T15:49:22Z
2017-12-07T13:50:56Z,42.805,6.029,13.2937,4.59958,2472.115,2017-12-07T15:52:25Z
2017-12-07T13:53:59Z,42.805,6.029,13.2936,4.59958,2472.077,2017-12-07T15:55:28Z
2017-12-07T13:57:02Z,42.805,6.029,13.2937,4.59958,2472.1,2017-12-07T15:58:31Z
2017-12-07T14:00:05Z,42.805,6.029,13.2933,4.59958,2472.115,2017-12-07T16:01:34Z
2017-12-07T14:03:08Z,42.805,6.029,13.2938,4.59957,2472.077,2017-12-07T16:04:37Z
2017-12-07T14:06:10Z,42.805,6.029,13.2936,4.59958,2472.115,2017-12-07T16:07:40Z
2017-12-07T14:09:13Z,42.805,6.029,13.2934,4.59957,2472.115,2017-12-07T16:10:43Z
2017-12-07T14:12:16Z,42.805,6.029,13.2935,4.59955,2472.092,2017-12-07T16:13:46Z
2017-12-07T14:15:19Z,42.805,6.029,13.2938,4.59958,2472.055,2017-12-07T16:16:48Z
2017-12-07T14:18:22Z,42.805,6.029,13.2940,4.59956,2472.092,2017-12-07T16:19:51Z
2017-12-07T14:21:25Z,42.805,6.029,13.2935,4.59958,2472.137,2017-12-07T16:22:54Z
2017-12-07T14:24:28Z,42.805,6.029,13.2934,4.59960,2472.092,2017-12-07T16:25:57Z
2017-12-07T14:27:31Z,42.805,6.029,13.2937,4.59960,2472.115,2017-12-07T16:29:00Z
2017-12-07T14:30:34Z,42.805,6.029,13.2934,4.59958,2472.115,2017-12-07T16:32:03Z
2017-12-07T14:33:36Z,42.805,6.029,13.2935,4.59960,2472.092,2017-12-07T16:35:06Z
2017-12-07T14:36:39Z,42.805,6.029,13.2937,4.59961,2472.092,2017-12-07T16:38:09Z
2017-12-07T14:39:42Z,42.805,6.029,13.2934,4.59958,2472.115,2017-12-07T16:41:12Z
2017-12-07T14:42:45Z,42.805,6.029,13.2939,4.59957,2472.077,2017-12-07T16:44:14Z
2017-12-07T14:45:48Z,42.805,6.029,13.2936,4.59958,2472.069,2017-12-07T16:47:17Z
2017-12-07T14:48:51Z,42.805,6.029,13.2933,4.59958,2472.055,2017-12-07T16:50:20Z
2017-12-07T14:51:54Z,42.805,6.029,13.2939,4.59958,2472.047,2017-12-07T16:53:23Z
2017-12-07T14:54:57Z,42.805,6.029,13.2935,4.59962,2472.092,2017-12-07T16:56:26Z
2017-12-07T14:58:00Z,42.805,6.029,13.2939,4.59959,2472.047,2017-12-07T16:59:29Z